Location: ?????
(38.3911°N, 24.0934°E)
Time: 21:51:54
(UTC+00:00)

Daily predictions for brighter satellites

Satellite Brightness Start Highest point End
(mag) Time Altitude Azimuth Time Altitude Azimuth Time Altitude Azimuth
ATLAS 3B R/B 4.1 15:20:29 10° NW 15:27:29 50° WSW 15:34:42 10° S
SL-08 R/B 4.1 15:24:26 10° N 15:29:03 53° WNW 15:33:33 10° SSW
CZ-4B R/B 4.3 15:26:11 10° ESE 15:30:07 21° ENE 15:34:01 10° NNE
Cosmos 1777 Rocket 4.1 15:25:43 10° NNW 15:31:02 85° ENE 15:36:18 10° SSE
Iridium 2 3.7 15:29:34 10° N 15:33:19 90° NNW 15:37:04 10° S
ARGOS 4.5 15:31:19 10° ESE 15:34:49 18° ENE 15:38:19 10° NNE
H-2A R/B 2.8 15:32:37 10° SE 15:37:06 29° ENE 15:41:29 10° N
SMAP 3.1 15:32:38 10° SSE 15:37:10 56° ENE 15:41:43 10° N
Meteor PRIRODA 3.9 15:34:01 10° S 15:37:39 72° WSW 15:41:18 10° NNW
COSMOS 2455 4.3 15:34:49 10° SE 15:38:34 17° ESE 15:42:21 10° ENE
Cosmos 1939 Rocket 2.9 15:34:53 10° SSE 15:38:57 63° ENE 15:43:02 10° N
FengYun 1-2 T 4.2 15:36:04 10° SSE 15:41:41 80° ENE 15:47:16 10° N
Cosmos 1606 3.0 15:38:13 10° SSW 15:41:56 70° W 15:45:42 10° N
GPS 2-04 Rocket1 4.1 15:39:11 10° SW 15:42:44 29° SSE 15:46:17 10° E
ERBS 4.2 15:40:33 10° W 15:43:09 22° NW 15:45:45 10° NNE
Cosmos 1766 Rocket 4.3 15:39:08 10° NNW 15:43:24 59° W 15:47:41 10° S
Cosmos 468 Rocket 4.5 15:39:05 10° S 15:43:48 39° ESE 15:48:36 10° NE
Cosmos 1862 4.1 15:40:11 10° NNW 15:44:06 58° W 15:48:01 10° S
Cosmos 2221 2.6 15:43:00 10° S 15:47:15 80° W 15:51:33 10° N
ATLAS CENTAUR R/B 3.9 15:44:43 10° W 15:47:18 16° NW 15:50:00 10° N
Cosmos 44 3.8 15:46:56 10° NNW 15:51:14 33° NE 15:55:17 10° ESE
Cosmos 540 Rocket 4.4 15:48:39 10° SSE 15:52:54 27° E 15:57:10 10° NE
Meteor 2-19 Rocket 4.4 15:50:47 10° N 15:56:54 83° E 16:03:01 10° S
COSMO-SKYMED 1 3.3 15:53:32 10° NNE 15:57:28 33° E 16:01:24 10° SSE
deb Chang Zheng 4 4.4 15:53:57 10° SE 15:57:34 27° ENE 16:01:13 10° N
CZ-2C R/B 3.1 15:54:43 10° NNE 15:59:34 38° E 16:04:21 10° SSE
Okean O Rocket 2.6 15:57:38 10° SE 16:01:16 25° ENE 16:04:55 10° NNE
CZ-4C R/B 4.3 15:57:35 10° N 16:01:46 16° NNE 16:04:34 13° ENE
Meteor 1-25 Rocket 4.4 15:58:19 10° N 16:03:38 45° ENE 16:08:58 10° SSE
MOS 1-B 4.3 16:01:38 10° SSE 16:07:17 60° ENE 16:12:57 10° N
NOAA 6 4.4 16:05:32 10° S 16:10:39 68° WSW 16:15:47 10° NNW
GEOS 3 Rocket 4.3 16:15:44 16° E 16:19:06 33° NE 16:23:42 10° NNW
Cosmos 2084 4.5 16:19:01 10° N 16:22:40 26° NE 16:23:06 25° ENE
Cosmos 1782 2.9 16:20:08 10° S 16:24:00 51° E 16:26:58 16° NNE
Atlas Centaur 2 3.9 16:24:31 10° SSW 16:25:23 11° SSW 16:26:15 10° S
Cosmos 1763 Rocket 3.5 16:20:26 10° SSW 16:25:28 78° WNW 16:30:35 10° NNE
Cosmos 1743 Rocket 3.5 16:22:23 10° N 16:26:44 85° W 16:31:02 10° S
Cosmos 841 Rocket 3.8 16:22:12 10° S 16:27:05 44° ESE 16:30:01 22° NE
CZ-4C R/B 3.7 16:27:46 31° ESE 16:27:46 31° ESE 16:30:18 10° SSE
Cosmos 1697 Rocket 3.0 16:22:08 10° N 16:27:26 41° ENE 16:32:41 10° SE
Cosmos 1980 Rocket 3.3 16:24:46 10° N 16:28:50 23° NE 16:28:50 23° NE
Cosmos 1937 Rocket 4.0 16:24:32 10° N 16:29:29 37° ENE 16:34:23 10° SE
Lacrosse 5 3.7 16:26:32 10° WNW 16:31:02 32° WSW 16:35:31 10° S
Meteor 2-14 Rocket 4.4 16:26:16 10° N 16:32:19 59° E 16:38:16 10° SSE
Cosmos 1656 3.7 16:28:07 10° NNW 16:33:41 86° WSW 16:39:17 10° SSE
Cosmos 2082 Rocket 2.6 16:28:54 10° S 16:34:13 42° ESE 16:36:39 28° NE
Cosmos 1812 3.2 16:32:42 10° SSE 16:35:53 37° ESE 16:35:53 37° ESE
Cosmos 1340 Rocket 3.9 16:35:23 10° NNW 16:39:18 48° W 16:43:12 10° S
COSMOS 2406 3.1 16:33:40 10° SSW 16:39:25 82° ESE 16:43:56 17° NNE
Cosmos 1092 Rocket 4.0 16:34:14 10° N 16:40:37 88° W 16:46:56 10° S
Cosmos 1809 Rocket 4.3 16:35:38 10° N 16:41:45 84° E 16:47:50 10° S
USA 229 DEB 4.0 16:35:23 10° NNW 16:42:42 58° NE 16:50:07 11° SE
USA 229 4.0 16:35:29 10° NNW 16:42:48 57° NE 16:50:00 12° SE
Cosmos 1151 Rocket 3.2 16:39:43 10° SSE 16:43:49 45° E 16:43:59 45° E
Cosmos 990 Rocket 4.0 16:39:45 10° NNW 16:44:58 81° WSW 16:50:07 10° SSE
SKYMED 2 3.9 16:41:16 10° N 16:45:36 67° WNW 16:49:54 10° SSW
Feng Yun 1-1 Rocket 4.5 16:40:11 10° SE 16:45:52 51° ENE 16:51:34 10° N
Cosmos 1933 4.2 16:42:25 10° SSW 16:46:21 49° W 16:50:18 10° N
ATLAS CENTAUR R/B 3.8 16:37:19 10° WSW 16:47:53 51° NW 16:50:57 22° NNE
Meteor 2-21 Rocket 4.4 16:42:27 10° N 16:48:30 58° E 16:54:26 10° SSE
USA 276 4.4 16:46:52 10° NNW 16:47:51 16° NNW 16:47:51 16° NNW
Cosmos 1602 3.8 16:45:49 10° NNW 16:49:38 73° W 16:53:29 10° S
Cosmos 2142 Rocket 4.3 16:44:05 10° S 16:50:08 68° E 16:56:15 10° NNE
Cosmos 1428 Rocket 4.5 16:47:03 10° N 16:53:11 81° W 16:59:19 10° S
Meteor 1-26 Rocket 4.4 16:48:21 10° SSW 16:54:13 79° W 17:00:16 10° N
Cosmos 1570 Rocket 4.4 16:49:41 10° S 16:54:15 41° ESE 16:54:15 41° ESE
Cosmos 858 Rocket 4.4 16:53:49 10° NNW 16:59:05 64° ENE 17:01:49 28° SE
NOSS 3-1 (A) 4.1 16:58:26 10° NNW 17:06:17 85° ENE 17:15:17 10° SSE
Cosmos 1833 Rocket 3.7 17:02:03 10° SW 17:07:23 44° WNW 17:11:52 15° N
Cosmos 2279 Rocket 3.9 17:02:10 10° S 17:08:23 89° E 17:14:38 10° N
CZ-4B R/B 4.0 17:04:57 10° S 17:10:16 50° W 17:15:32 10° NNW
H-2A R/B 4.3 17:16:50 15° S 17:16:50 15° S 17:17:39 10° S
Cosmos 2360 4.1 17:08:15 10° NNW 17:14:00 89° WSW 17:18:12 19° SSE
Cosmos 1814 Rocket 3.8 17:08:55 10° S 17:14:10 75° ESE 17:14:17 74° E
ARGOS 3.7 17:09:14 10° S 17:14:34 59° W 17:19:55 10° NNW
H-2A R/B 3.8 17:11:44 10° SSW 17:16:24 32° W 17:20:59 10° NW
Meteor 1-14 Rocket 4.1 17:11:36 10° N 17:17:25 82° E 17:23:20 10° S
BREEZE M DEB (TANK) 4.1 17:00:11 10° NW 17:18:23 77° SW 17:20:47 39° SE
Sich 1 4.1 17:15:05 10° NNW 17:19:08 44° W 17:23:13 10° SSW
GPS 2-04 Rocket1 3.8 17:17:47 10° WSW 17:20:42 41° SW 17:20:42 41° SW
Cosmos 1898 Rocket 4.4 17:18:33 10° NNW 17:23:35 48° WSW 17:28:33 10° S
COSMOS 2455 3.1 17:17:52 10° SW 17:23:51 68° WNW 17:25:52 42° N
Okean O Rocket 3.7 17:33:44 10° SSW 17:37:29 27° W 17:41:17 10° NW
CZ-4C R/B 3.5 17:44:34 10° NNW 17:49:48 44° N 17:49:48 44° N
Cosmos 1980 Rocket 3.8 18:07:59 10° NNW 18:10:40 27° NW 18:10:40 27° NW
Cosmos 2082 Rocket 4.0 18:13:41 10° WSW 18:18:25 27° WNW 18:18:33 27° NW
ATLAS 3B CENTAUR R/B 4.4 18:27:32 10° WSW 18:43:06 50° S 18:43:06 50° S
